Location: Newark
(35.8967°N, 14.4625°E)
Time: 09:51:01
(UTC+00:00)

N. Korean satellite - Pass Details

Date: 18 November 2019
Orbit: 456 x 506 km, 97.2° (Epoch: 08 December)

Event Time Altitude Azimuth Distance (km) Brightness Sun altitude
Rises 17:07:41 0° 207° (SSW) 2,540 10.8 -15.2°
Reaches altitude 10° 17:10:29 10° 232° (SW) 1,677 10.3 -15.7°
Maximum altitude 17:12:33 15° 267° (W) 1,425 10.1 -16.1°
Drops below altitude 10° 17:14:38 10° 302° (WNW) 1,699 10.0 -16.5°
Sets 17:17:32 0° 327° (NNW) 2,597 10.6 -17.1°
